When you browse on this site, cookies collect data to enhance your experience and personalize the content and advertising you see.
Visit our Privacy Policy to learn more. By continuing to use the site, you agree to this use of cookies and data.
  • En España
  • Lista de países
  • Para 7 días
  • Temperatura del agua
  • Mapa Satelital
  • El tiempo en el mapa
  • Informadores
  • user-avatar
    Iniciar sesión

    Tiempo cada hora Adelaide

    Hoy, 16 Febrero, Sábado

    Tiempo Temperatura Precipitaciones Viento Presión Humedad
    00:00 +20°C° 0 mm 2 mps 761 mmHg 63%
    01:00 +20°C° 0 mm 2 mps 760 mmHg 64%
    02:00 +20°C° 0 mm 2 mps 760 mmHg 65%
    03:00 +19°C° 0 mm 2 mps 760 mmHg 69%
    04:00 +20°C° 0 mm 1 mps 760 mmHg 68%
    05:00 +20°C° 0 mm 1 mps 760 mmHg 67%
    06:00 +20°C° 0 mm 1 mps 760 mmHg 66%
    07:00 +23°C° 0 mm 1 mps 760 mmHg 56%
    08:00 +26°C° 0 mm 1 mps 760 mmHg 46%
    09:00 +27°C° 0 mm 0 mps 760 mmHg 37%
    10:00 +30°C° 0 mm 1 mps 759 mmHg 33%
    11:00 +31°C° 0 mm 2 mps 759 mmHg 29%
    12:00 +32°C° 0 mm 2 mps 759 mmHg 25%
    13:00 +33°C° 0 mm 3 mps 758 mmHg 25%
    14:00 +33°C° 0 mm 3 mps 758 mmHg 25%
    15:00 +33°C° 0 mm 3 mps 757 mmHg 25%
    16:00 +31°C° 0 mm 3 mps 757 mmHg 29%
    17:00 +29°C° 0 mm 3 mps 757 mmHg 33%
    18:00 +28°C° 0 mm 3 mps 757 mmHg 37%
    19:00 +27°C° 0 mm 3 mps 757 mmHg 41%
    20:00 +25°C° 0 mm 3 mps 757 mmHg 45%
    21:00 +24°C° 0 mm 2 mps 757 mmHg 49%
    22:00 +23°C° 0 mm 2 mps 757 mmHg 49%
    23:00 +23°C° 0 mm 2 mps 757 mmHg 48%

    Mañana, 17 Febrero, Domingo

    Tiempo Temperatura Precipitaciones Viento Presión Humedad
    00:00 +21°C° 0 mm 2 mps 757 mmHg 47%
    01:00 +21°C° 0 mm 2 mps 756 mmHg 47%
    02:00 +21°C° 0 mm 2 mps 756 mmHg 47%
    03:00 +22°C° 0 mm 1 mps 756 mmHg 47%
    04:00 +22°C° 0 mm 1 mps 756 mmHg 46%
    05:00 +21°C° 0 mm 2 mps 756 mmHg 45%
    06:00 +21°C° 0 mm 2 mps 756 mmHg 44%
    07:00 +24°C° 0 mm 1 mps 756 mmHg 39%
    08:00 +26°C° 0 mm 1 mps 756 mmHg 35%
    09:00 +28°C° 0 mm 1 mps 756 mmHg 31%
    10:00 +30°C° 0 mm 1 mps 756 mmHg 28%
    11:00 +32°C° 0 mm 1 mps 755 mmHg 25%
    12:00 +33°C° 0 mm 1 mps 755 mmHg 23%
    13:00 +34°C° 0 mm 1 mps 754 mmHg 22%
    14:00 +35°C° 0 mm 2 mps 754 mmHg 21%
    15:00 +36°C° 0 mm 2 mps 753 mmHg 20%
    16:00 +34°C° 0 mm 3 mps 753 mmHg 23%
    17:00 +33°C° 0 mm 3 mps 753 mmHg 26%
    18:00 +30°C° 0 mm 4 mps 753 mmHg 29%
    19:00 +28°C° 0 mm 4 mps 753 mmHg 36%
    20:00 +27°C° 0 mm 5 mps 753 mmHg 42%
    21:00 +25°C° 0 mm 5 mps 753 mmHg 49%
    22:00 +25°C° 0 mm 5 mps 753 mmHg 52%
    23:00 +23°C° 0 mm 4 mps 752 mmHg 55%

    Pasado mañana, 18 Febrero, Lunes

    Tiempo Temperatura Precipitaciones Viento Presión Humedad
    00:00 +22°C° 0 mm 4 mps 752 mmHg 57%
    01:00 +22°C° 0 mm 4 mps 752 mmHg 59%
    02:00 +22°C° 0 mm 4 mps 752 mmHg 61%
    03:00 +22°C° 0 mm 4 mps 752 mmHg 63%
    04:00 +21°C° 0 mm 4 mps 752 mmHg 67%
    05:00 +21°C° 0 mm 5 mps 752 mmHg 72%
    06:00 +20°C° 0 mm 5 mps 753 mmHg 76%
    07:00 +21°C° 0 mm 5 mps 753 mmHg 72%
    08:00 +22°C° 0 mm 5 mps 753 mmHg 68%
    09:00 +23°C° 0 mm 5 mps 753 mmHg 65%
    10:00 +25°C° 0 mm 5 mps 753 mmHg 59%
    11:00 +26°C° 0 mm 5 mps 753 mmHg 54%
    12:00 +27°C° 0 mm 5 mps 753 mmHg 48%
    13:00 +27°C° 0 mm 5 mps 753 mmHg 48%
    14:00 +26°C° 0 mm 6 mps 753 mmHg 48%
    15:00 +26°C° 0 mm 7 mps 753 mmHg 47%
    16:00 +23°C° 0 mm 7 mps 754 mmHg 52%
    17:00 +21°C° 0 mm 7 mps 755 mmHg 57%
    18:00 +20°C° 0 mm 7 mps 755 mmHg 62%
    19:00 +19°C° 0 mm 6 mps 756 mmHg 65%
    20:00 +17°C° 0 mm 6 mps 756 mmHg 69%
    21:00 +16°C° 0 mm 5 mps 757 mmHg 72%
    22:00 +16°C° 0 mm 5 mps 757 mmHg 72%
    23:00 +15°C° 0 mm 5 mps 757 mmHg 72%

    19 Febrero, Martes

    Tiempo Temperatura Precipitaciones Viento Presión Humedad
    00:00 +15°C° 0 mm 4 mps 757 mmHg 72%
    01:00 +15°C° 0 mm 4 mps 757 mmHg 72%
    02:00 +15°C° 0 mm 4 mps 757 mmHg 72%
    03:00 +15°C° 0 mm 4 mps 757 mmHg 71%
    04:00 +15°C° 0 mm 4 mps 757 mmHg 71%
    05:00 +16°C° 0 mm 3 mps 758 mmHg 70%
    06:00 +16°C° 0 mm 3 mps 758 mmHg 70%
    07:00 +17°C° 0 mm 3 mps 758 mmHg 64%
    08:00 +18°C° 0 mm 4 mps 759 mmHg 59%
    09:00 +19°C° 0 mm 4 mps 759 mmHg 53%
    10:00 +20°C° 0 mm 4 mps 759 mmHg 51%
    11:00 +21°C° 0 mm 4 mps 758 mmHg 49%
    12:00 +21°C° 0 mm 4 mps 758 mmHg 46%
    13:00 +21°C° 0 mm 4 mps 758 mmHg 46%
    14:00 +21°C° 0 mm 5 mps 757 mmHg 47%
    15:00 +21°C° 0 mm 5 mps 757 mmHg 47%
    16:00 +21°C° 0 mm 5 mps 757 mmHg 49%
    17:00 +20°C° 0 mm 4 mps 757 mmHg 52%
    18:00 +19°C° 0 mm 4 mps 758 mmHg 55%
    19:00 +18°C° 0 mm 4 mps 758 mmHg 59%
    20:00 +17°C° 0 mm 3 mps 758 mmHg 63%
    21:00 +16°C° 0 mm 3 mps 759 mmHg 67%
    22:00 +16°C° 0 mm 3 mps 759 mmHg 68%
    23:00 +16°C° 0 mm 3 mps 759 mmHg 70%

    20 Febrero, Miércoles

    Tiempo Temperatura Precipitaciones Viento Presión Humedad
    00:00 +16°C° 0 mm 3 mps 759 mmHg 71%
    01:00 +14°C° 0 mm 3 mps 758 mmHg 72%
    02:00 +15°C° 0 mm 2 mps 758 mmHg 72%
    03:00 +15°C° 0 mm 2 mps 758 mmHg 72%
    04:00 +15°C° 0 mm 2 mps 758 mmHg 72%
    05:00 +15°C° 0 mm 2 mps 758 mmHg 72%
    06:00 +15°C° 0 mm 2 mps 758 mmHg 72%
    07:00 +17°C° 0 mm 2 mps 758 mmHg 64%
    08:00 +19°C° 0 mm 2 mps 758 mmHg 57%
    09:00 +21°C° 0 mm 2 mps 759 mmHg 50%
    10:00 +22°C° 0 mm 3 mps 758 mmHg 48%
    11:00 +22°C° 0 mm 4 mps 758 mmHg 46%
    12:00 +23°C° 0 mm 4 mps 758 mmHg 44%
    13:00 +23°C° 0 mm 4 mps 758 mmHg 46%
    14:00 +23°C° 0 mm 5 mps 757 mmHg 47%
    15:00 +23°C° 0 mm 5 mps 757 mmHg 48%
    16:00 +22°C° 0 mm 5 mps 758 mmHg 52%
    17:00 +21°C° 0 mm 4 mps 758 mmHg 56%
    18:00 +21°C° 0 mm 4 mps 758 mmHg 59%
    19:00 +20°C° 0 mm 4 mps 759 mmHg 64%
    20:00 +19°C° 0 mm 4 mps 759 mmHg 68%
    21:00 +18°C° 0 mm 3 mps 760 mmHg 73%
    22:00 +17°C° 0 mm 3 mps 759 mmHg 75%
    23:00 +17°C° 0 mm 3 mps 759 mmHg 77%

    21 Febrero, Jueves

    Tiempo Temperatura Precipitaciones Viento Presión Humedad
    00:00 +17°C° 0 mm 3 mps 759 mmHg 79%
    01:00 +16°C° 0 mm 3 mps 759 mmHg 79%
    02:00 +16°C° 0 mm 2 mps 759 mmHg 80%
    03:00 +16°C° 0 mm 2 mps 759 mmHg 81%
    04:00 +16°C° 0 mm 2 mps 759 mmHg 81%
    05:00 +16°C° 0 mm 2 mps 760 mmHg 82%
    06:00 +16°C° 0 mm 2 mps 760 mmHg 83%
    07:00 +18°C° 0 mm 2 mps 760 mmHg 74%
    08:00 +20°C° 0 mm 2 mps 761 mmHg 66%
    09:00 +22°C° 0 mm 3 mps 761 mmHg 57%
    10:00 +22°C° 0 mm 3 mps 761 mmHg 57%
    11:00 +22°C° 0 mm 3 mps 761 mmHg 57%
    12:00 +22°C° 0 mm 4 mps 761 mmHg 57%
    13:00 +22°C° 0 mm 4 mps 761 mmHg 55%
    14:00 +23°C° 0 mm 5 mps 760 mmHg 53%
    15:00 +23°C° 0 mm 5 mps 760 mmHg 50%
    16:00 +22°C° 0 mm 5 mps 761 mmHg 53%
    17:00 +20°C° 0 mm 5 mps 761 mmHg 56%
    18:00 +19°C° 0 mm 6 mps 761 mmHg 59%
    19:00 +17°C° 0 mm 5 mps 762 mmHg 64%
    20:00 +16°C° 0 mm 5 mps 762 mmHg 68%
    21:00 +15°C° 0 mm 5 mps 763 mmHg 73%
    22:00 +15°C° 0 mm 5 mps 763 mmHg 73%
    23:00 +15°C° 0 mm 5 mps 763 mmHg 74%
    Mostrar más